Zurück zum Katalog

SPACENET 2

AktivKommunikationGEO
NORAD 15385·PAYLOAD·🇺🇸 United States

Gestartet Nov 10, 1984 von Guiana Space Centre

Loading…

TLE

AktuellSource: Space-Track

Epoche: Sep 9, 2026, 21:07 UTC

1 15385U 84114A   26252.88041073  .00000093  00000-0  00000+0 0  9999
2 15385  14.6455 351.3627 0006311 100.3308 263.3637  0.99754861127821

Verfolge SPACENET 2 in Echtzeit mit AllMySat

Download on the App Store